Tracking 28790 objects as of 19-Apr-2024
HD Live streaming from Space Station
objects crossing your sky now

FENGYUN 1C DEB

Track FENGYUN 1C DEB now!
10-day predictions


NORAD ID: 29959
Int'l Code: 1999-025KH
Perigee: 851.7 km
Apogee: 912.9 km
Inclination: 98.9 °
Period: 102.5 minutes
Semi major axis: 7253 km
RCS: 0.028 m2 (small)
Launch date: May 10, 1999
Source: People's Republic of China (PRC)
Launch site: Taiyaun Space Center, China (TSC)

Note: This is SATELLITE DEBRIS
Your satellite tracking list
Your tracking list is empty




NASA's NSSDC Master Catalog

Two Line Element Set (TLE):
1 29959U 99025KH  24110.07145043  .00000447  00000-0  29993-3 0  9991
2 29959  98.8766 149.1290 0042141 214.8710 217.8572 14.05397112884882
Source of the keplerian elements: AFSPC